Location: Invercargill
(46.4000°S, 168.3500°E)
Time: 16:44:37
(UTC+12:00)

S-56A Canister/Altair - Visible Passes

Search period start: 23 August 2019 00:00
Search period end: 02 September 2019 00:00
Orbit: 633 x 2499 km, 38.9° (Epoch: 21 August)

Date Brightness Start Highest point End Pass type
(mag) Time Alt. Az. Time Alt. Az. Time Alt. Az.
23 Aug 11.7 06:55:46 10° N 07:04:20 21° NE 07:13:58 10° E visible
24 Aug 11.7 06:24:04 10° NNE 06:31:22 18° NE 06:39:33 10° E visible
25 Aug 11.7 05:52:49 10° NNE 05:58:28 14° NE 06:04:43 10° E visible
26 Aug 11.7 05:22:41 10° NE 05:25:39 11° ENE 05:28:48 10° ENE visible
27 Aug 11.2 06:45:30 10° NNW 06:55:17 32° NE 07:07:21 10° E visible
28 Aug 11.1 06:13:18 10° N 06:22:15 28° NE 06:33:22 10° E visible
29 Aug 11.0 05:41:18 10° N 05:49:19 24° NE 05:59:17 10° E visible
30 Aug 11.0 05:09:30 10° N 05:16:28 21° NE 05:25:02 10° E visible
31 Aug 11.0 04:37:59 10° NNE 04:43:43 17° NE 04:50:33 10° E visible
31 Aug 10.6 06:36:49 10° NW 06:46:41 44° NNE 06:59:46 10° E visible
01 Sep 11.0 04:07:01 10° NNE 04:11:02 13° NE 04:15:37 10° ENE visible
01 Sep 10.6 06:04:28 10° NNW 06:13:37 40° NNE 06:25:56 10° E visible
